EHI
0 0 0 0 0 0 0 0 1 1 1 1 0 0 0 0 0 0 0 0 0 0 0 0 0 0 0 0 0 0 0 0 0 0 0 0 0 0
0 0 0 0 0 0 0 0 0 0 1 1 0 0 0 0 0 0 0 0 0 0 0 0 0 0 0 0 0 0 0 0 0 0 0 0 0 0
0 0 0 0 0 0 0 0 0 0 0 0 0 0 0 0 0 0 0 0 0 0 0 0 0 0 0 0 0 0 0 0 0 0 0 0 0 0
0 0 0 0 0 0 0 0 0 0 0 0 0 0 0 0 0 0 0 0 0 0 0 0 0 0 0 0 0 0 0 0 0 0 0 0 0 0
0 0 0 0 0 0 0 0 0 0 0 0 0 0 0 0 0 0 0 0 0 0 0 0 0 0 0 0 0 0 0 0 0 0 0 0 0 0
0 0 0 0 0 0 0 0 0 0 0 0 0 0 0 0 0 0 0 0 0 0 0 0 0 0 0 0 0 0 0 0 0 0 0 0 0 0
0 0 0 0 0 0 0 0 0 0 0 0 0 0 0 0 0 0 0 0 0 0 0 0 0 0 0 0 0 0 0 0 0 0 0 0 0 0
0 0 0 0 0 0 0 0 0 0 0 0 0 0 0 0 0 0 0 0 0 0 0 0 0 0 0 0 0 0 0 0 0 0 0 0 0 0
0 0 0 0 0 0 0 0 0 0 0 0 0 0 0 0 0 0 0 0 0 0 0 0 0 0 0 0 0 0 0 0 0 0 0 0 0 0
0 0 0 0 0 0 0 0 0 0 0 0 0 0 0 0 0 0 0 0 0 0 0 0 0 0 0 0 0 0 0 0 0 0 0 0 0 0
0 0 0 0 0 0 0 0 0 0 0 0 0 0 0 0 0 0 0 0 0 0 0 0 0 0 0 0 0 0 0 0 0 0 0 0 0 0
0 0 0 0 0 0 0 0 0 0 0 0 0 0 0 0 0 0 0 0 0 0 0 0 0 0 0 0 0 0 0 0 0 0 0 0 0 0
0 0 0 0 0 0 0 0 0 0 0 0 0 0 0 0 0 0 0 0 0 0 0 0 0 0 0 0 0 0 0 0 0 0 0 0 0 0
0 0 0 0 0 0 0 0 0 0 0 0 0 0 0 0 0 0 0 0 0 0 0 0 0 0 0 0 0 0 0 0 0 0 0 0 0 0
0 0 0 0 0 0 0 0 0 0 0 0 0 0 0 0 0 0 0 0 0 0 0 0 0 0 0 0 0 0 0 0 0 0 0 0 0 0
0 0 0 0 0 0 0 0 0 0 0 0 0 0 0 0 0 0 0 0 0 0 0 0 0 0 0 0 0 0 0 0 0 0 0 0 0 0
0 0 0 0 0 0 0 0 0 0 0 0 0 0 0 0 0 0 0 0 0 0 0 0 0 0 0 0 0 0 0 0 0 0 0 0 0 0
0 0 0 0 0 0 0 0 0 0 0 0 0 0 0 0 0 0 0 0 0 0 0 0 0 0 0 0 0 0 0 0 0 0 0 0 0 0
0 0 0 0 0 0 0 0 0 0 0 0 0 0 0 0 0 0 0 0 0 0 0 0 0 0 0 0 0 0 0 0 0 0 0 0 0 0
0 0 0 0 0 0 0 0 0 0 0 0 0 0 0 0 0 0 0 0 0 0 0 0 0 0 0 0 0 0 0 0 0 0 0 0 0 0
0 0 0 0 0 0 0 0 0 0 0 0 0 0 0 0 0 0 0 0 0 0 0 0 0 0 0 0 0 0 0 0 0 0 0 0 0 0
0 0 0 0 0 0 0 0 0 0 0 0 0 0 0 0 0 0 0 0 0 0 0 0 0 0 0 0 0 0 0 0 0 0 0 0 0 0
0 0 0 0 0 0 0 0 0 0 0 0 0 0 0 0 0 0 0 0 0 0 0 0 0 0 0 0 0 0 0 0 0 0 0 0 0 0
Wind_Speed
7 8 7 7 7 7 7 7 7 6 6 6 4 6 6 7 7 9 10 12 11 9 7 6 4 3 2 1 1 2 3 3 4 4 5 5 6 6
5 7 7 6 6 6 7 7 7 7 5 3 3 3 4 5 7 9 8 14 12 10 9 8 7 5 4 3 2 1 1 2 2 3 4 5 5 6
5 6 7 7 6 6 6 6 6 6 8 5 3 3 4 6 6 8 8 8 9 13 11 10 9 8 7 6 5 4 3 2 2 2 3 3 3 4
4 5 6 5 7 6 5 7 6 7 7 8 5 4 6 5 6 7 7 7 7 12 13 11 11 10 9 8 8 7 6 5 4 4 3 3 3 2
4 4 4 5 5 5 5 5 5 6 6 6 5 3 3 3 5 5 7 6 7 8 11 12 12 11 11 10 10 9 8 7 6 5 5 4 4 2
3 4 4 4 4 4 4 5 5 5 5 5 4 3 3 2 3 4 5 5 6 6 7 8 10 13 13 13 12 12 11 10 9 8 7 6 5 4
4 4 2 1 3 2 2 2 3 3 4 4 4 3 3 3 4 3 3 3 4 4 5 6 7 9 11 14 15 15 13 12 11 10 9 8 7 6
4 4 3 4 4 4 2 2 3 3 2 2 2 3 3 4 3 3 3 2 3 2 4 5 5 7 7 8 11 15 16 14 13 12 11 10 9 8
5 4 3 3 4 4 6 7 5 3 4 4 2 2 2 3 4 4 3 3 3 2 2 4 4 6 6 6 8 12 14 15 14 14 13 12 11 10
6 5 5 5 3 3 3 4 3 4 4 5 3 2 1 1 3 3 3 3 2 1 2 3 3 5 5 5 8 11 13 13 14 14 14 13 12 11
5 4 4 3 4 1 5 4 3 2 2 3 5 4 3 1 2 2 3 2 2 3 4 3 3 3 4 5 4 9 10 11 12 13 14 13 12 11
3 3 1 2 2 2 5 3 3 1 1 3 4 5 5 5 7 6 4 3 2 2 3 3 2 2 3 2 1 2 5 9 11 12 12 12 12 10
2 2 2 2 1 2 4 2 2 3 2 2 1 1 1 1 3 4 3 3 3 2 2 3 2 2 3 2 2 1 2 2 4 7 11 12 13 12
1 1 3 4 2 1 1 2 1 3 2 1 1 1 1 1 1 1 2 2 2 3 1 2 2 2 2 3 3 2 2 2 3 3 3 8 12 14
4 7 7 4 2 3 4 2 1 1 1 1 1 2 2 2 2 1 1 1 1 0 0 2 2 2 3 3 4 3 3 2 2 3 3 3 5 6
5 6 6 5 4 4 3 2 2 2 2 2 2 1 1 1 2 2 2 1 1 0 1 1 1 2 3 4 4 5 4 3 2 2 3 3 4 4
3 4 4 4 4 4 4 4 3 2 2 2 2 2 2 2 2 2 2 2 2 2 1 1 2 2 4 4 4 4 4 3 3 2 2 3 4 5
4 5 5 5 5 4 4 4 4 4 3 3 2 2 2 2 2 1 2 2 2 2 2 2 3 3 3 3 3 5 4 3 2 2 2 3 5 3
7 6 6 5 5 5 5 4 4 4 4 3 3 3 3 3 2 2 2 3 3 3 3 3 3 4 5 4 1 1 5 4 3 3 2 3 5 4
7 6 6 6 5 5 5 5 4 4 4 4 4 4 3 3 3 3 3 4 4 4 3 3 3 4 5 5 5 3 2 5 5 5 4 4 5 5
6 6 6 5 5 5 5 5 5 4 5 4 4 4 4 4 3 3 3 3 4 4 4 4 3 3 5 4 4 4 3 1 3 5 5 5 5 4
6 5 5 6 5 5 5 5 4 5 5 5 4 4 4 4 4 4 4 4 3 4 4 4 4 3 3 3 5 5 5 4 0 2 1 2 4 4
5 5 5 5 5 5 4 5 5 4 5 5 4 5 4 4 4 4 4 4 4 4 4 4 4 3 3 4 4 4 6 6 4 3 2 3 1 2
Wind_Direction
235 238 239 239 238 238 238 233 236 240 236 231 219 214 215 224 175 202 214 180 191 200 204 207 208 206 199 151 80 42 33 31 27 22 18 13 12 14
229 233 234 237 235 234 235 235 235 244 251 231 220 219 208 219 197 225 224 156 186 198 204 207 207 206 203 202 201 213 338 359 2 6 8 8 12 17
222 230 232 231 232 232 231 231 230 232 245 241 214 223 222 229 192 219 216 199 194 194 203 208 209 211 211 212 215 222 239 264 290 314 329 342 356 12
221 227 232 228 231 231 229 230 229 228 238 247 225 217 227 234 223 211 213 216 218 180 196 208 212 214 215 217 220 223 230 241 253 267 280 297 305 334
223 233 237 233 234 232 229 231 232 230 231 243 236 209 214 222 227 220 218 217 224 185 193 209 214 217 218 218 219 221 226 232 239 248 256 271 278 272
219 234 238 235 242 237 234 235 233 231 228 233 231 204 182 192 217 214 212 209 221 213 207 211 211 213 220 220 220 220 222 225 230 237 240 247 255 251
218 227 231 327 348 310 292 272 243 234 227 225 225 207 187 178 198 204 218 213 231 230 227 216 213 219 213 218 222 223 220 220 223 227 231 235 237 238
220 213 183 200 185 202 246 309 315 296 270 232 224 219 207 194 184 186 196 201 224 199 238 243 234 240 236 231 203 204 213 217 219 221 224 227 231 233
230 213 197 194 221 207 183 202 216 229 266 290 271 244 211 193 187 193 203 212 219 176 218 258 239 247 249 236 195 200 210 216 218 219 221 223 225 229
231 234 222 210 203 268 236 231 227 209 224 253 276 293 312 179 196 206 203 212 226 198 203 253 247 252 258 250 199 208 216 220 222 221 220 220 221 224
224 237 254 232 110 275 260 251 242 214 175 264 321 336 4 315 238 215 202 205 230 217 194 236 265 263 261 254 204 201 221 224 224 224 222 219 218 222
208 208 181 301 106 221 255 259 259 243 244 200 221 218 227 205 209 234 231 230 236 237 187 212 252 268 278 252 258 213 216 216 220 224 223 219 209 222
198 198 144 140 187 221 268 294 6 332 296 292 294 293 257 229 213 230 235 245 253 253 185 201 244 249 270 291 284 283 289 260 215 216 217 216 210 221
136 114 95 103 116 155 245 61 43 287 283 286 295 333 351 353 338 313 274 258 265 283 256 211 240 246 263 272 275 271 270 273 273 261 231 196 210 223
65 68 74 78 133 123 90 80 232 264 328 333 16 32 23 7 3 358 355 335 299 313 283 225 250 261 260 272 285 284 284 271 254 264 263 235 221 214
94 102 102 80 76 77 113 111 60 39 12 27 45 53 50 35 27 5 355 335 307 121 84 17 281 272 270 271 276 282 282 281 281 271 272 264 256 247
69 85 78 78 69 63 61 55 49 59 56 53 56 52 45 50 44 26 4 344 338 342 346 344 317 288 271 275 277 277 285 284 281 284 273 275 264 247
60 70 63 59 55 51 52 51 43 37 32 31 33 29 19 17 25 24 0 343 335 333 336 338 323 299 269 240 246 288 299 303 306 291 274 282 286 279
60 59 53 47 43 40 41 42 37 29 27 30 29 24 15 8 3 4 359 348 346 345 347 346 335 322 315 317 351 268 317 322 315 300 274 266 283 299
50 48 43 39 38 37 35 32 32 28 26 27 26 20 14 6 6 3 5 359 346 340 342 351 352 342 327 322 321 317 295 317 320 314 307 293 284 281
46 44 37 32 32 32 31 29 30 28 23 21 19 13 8 1 3 2 360 0 336 338 340 348 359 318 300 297 296 310 342 324 311 318 323 314 307 300
40 40 36 31 28 26 24 21 24 25 19 17 10 4 359 352 353 352 349 346 343 340 336 338 337 330 325 315 318 322 327 338 338 215 267 315 320 323
39 37 38 32 28 23 21 22 24 23 17 8 4 359 354 350 345 342 342 343 341 345 342 340 344 344 338 333 327 329 337 343 344 337 33 75 28 327